Location: Newark
(3.0500°N, 36.0167°E)
Time: 01:44:17
(UTC+00:00)

Transit 2A Rocket - Pass Details

Date: 22 August 2019
Orbit: 594 x 910 km, 66.7° (Epoch: 17 October)

Event Time Altitude Azimuth Distance (km) Brightness Sun altitude
Rises 14:20:52 0° 175° (S) 3,526 8.3 19.7°
Reaches altitude 10° 14:23:54 10° 161° (SSE) 2,591 7.5 19.0°
Maximum altitude 14:28:36 24° 110° (ESE) 1,794 6.5 17.8°
Drops below altitude 10° 14:33:14 10° 58° (ENE) 2,540 7.3 16.7°
Sets 14:36:09 0° 45° (NE) 3,441 8.1 16.0°
